{"data":{"norad_id":66410,"intl_designator":"2025-256B","name":"CHUTIAN-2 B","alt_names":[],"object_type":"PAYLOAD","status":"ACTIVE","operator":null,"country":"PRC","launch_date":"2025-11-09","launch_site_code":"JSC","launch_vehicle":null,"mission":null,"orbit_class":"UNKNOWN","rcs_meters":null,"size_class":null,"mass_kg":null,"dimensions":null,"purposes":[],"wikipedia_slug":null,"has_3d_model":false,"image_url":null,"decayed_at":null,"tle_current":{"epoch":"2026-05-25T02:33:39.784608Z","epoch_age_seconds":59765,"freshness":"FRESH","line1":"1 66410U 25256B   26145.10671047  .00000386  00000+0  11042-3 0  9998","line2":"2 66410  98.2541 211.8524 0015050  49.5268 310.7236 14.50169480 28556","mean_motion":14.5016948,"eccentricity":0.001505,"inclination_deg":98.2541,"raan_deg":211.8524,"arg_perigee_deg":49.5268,"mean_anomaly_deg":310.7236,"bstar":0.00011042,"rev_number":2855,"period_min":99.298738517101,"perigee_km":714.40465720268,"apogee_km":735.78538558708,"semimajor_km":7103.2320213949,"source":"CELESTRAK","updated_at":"2026-05-25T13:38:06.204674Z"}}}